Weather History for Marion, VA

Change the Weather History Date:

Wednesday, February 20, 2013

  Actual Average (KGEV) Record (KGEV)
Temperature  
Mean Temperature 33 °F -  
Max Temperature 40 °F 47 °F 66 °F (1986)
Min Temperature 26 °F 26 °F 4 °F (1979)
Degree Days  
Heating Degree Days 32    
Moisture  
Dew Point 10 °F    
Average Humidity 41    
Maximum Humidity 63    
Minimum Humidity 20    
Precipitation  
Precipitation 0.00 in - - ()
Sea Level Pressure  
Sea Level Pressure 30.04 in    
Wind  
Wind Speed 25 mph (West)    
Max Wind Speed 34 mph    
Max Gust Speed 41 mph    
Visibility 10 miles    
Events      
Averages and records for this station are not official NWS values.
T = Trace of Precipitation, MM = Missing Value Source: NWS Daily Summary

Daily Weather History Graph

Daily Weather History Graph

Search for Another Location

Airport:

Trip Planner

Search our weather history database for the weather conditions in past years. The results will help you decide how hot, cold, wet, or windy it might be!

Date:

Astronomy

Feb. 20, 2013 Rise Set
Actual Time 7:07 AM EST 6:11 PM EST
Civil Twilight 6:41 AM EST 6:37 PM EST
Nautical Twilight 6:11 AM EST 7:07 PM EST
Astronomical Twilight 5:41 AM EST 7:37 PM EST
Moon 1:35 PM EST (2/20) 3:22 AM EST (2/20)
Length of Visible Light 11h 56m
Length of Day
11h 03m
Waxing Gibbous, 76% of the Moon is Illuminated
Feb 20
Waxing Gibbous
Feb 25
Full
Mar 4
Last Quarter
Mar 11
New
Mar 19
First Quarter

Hourly Weather History & Observations

Time (EST) Temp. Windchill Dew Point Humidity Pressure Visibility Wind Dir Wind Speed Gust Speed Precip Events Conditions
12:15 AM 32.9 °F 18.0 °F 13.6 °F 45% 29.96 in 10.0 mi West 34.5 mph 41.4 mph N/A   Clear
12:35 AM 32.4 °F 19.1 °F 13.8 °F 46% 29.97 in 10.0 mi West 25.3 mph 34.5 mph N/A   Clear
12:55 AM 32.0 °F 18.6 °F 11.5 °F 43% 29.98 in 10.0 mi West 25.3 mph 36.8 mph N/A   Clear
1:15 AM 32.0 °F 17.4 °F 9.3 °F 39% 29.97 in 10.0 mi West 31.1 mph 41.4 mph N/A   Clear
1:35 AM 31.8 °F 19.0 °F 10.6 °F 41% 29.99 in 10.0 mi West 23.0 mph 36.8 mph N/A   Clear
1:55 AM 31.6 °F 17.9 °F 10.8 °F 42% 29.98 in 10.0 mi West 26.5 mph 35.7 mph N/A   Clear
2:15 AM 31.1 °F 17.4 °F 11.7 °F 45% 29.98 in 10.0 mi West 25.3 mph 33.4 mph N/A   Clear
2:35 AM 30.9 °F 16.9 °F 13.1 °F 48% 29.97 in 10.0 mi West 26.5 mph 34.5 mph N/A   Clear
2:55 AM 30.7 °F 16.4 °F 13.1 °F 48% 29.98 in 10.0 mi West 27.6 mph 38.0 mph N/A   Clear
3:15 AM 30.6 °F 16.2 °F 12.7 °F 48% 29.98 in 10.0 mi West 27.6 mph 41.4 mph N/A   Clear
3:35 AM 30.2 °F 15.7 °F 12.6 °F 48% 29.99 in 10.0 mi West 27.6 mph 36.8 mph N/A   Clear
4:15 AM 29.7 °F 15.2 °F 12.2 °F 48% 29.99 in 10.0 mi West 26.5 mph 36.8 mph N/A   Clear
4:35 AM 29.3 °F 15.6 °F 12.7 °F 50% 30.00 in 10.0 mi West 23.0 mph 31.1 mph N/A   Clear
4:55 AM 28.8 °F 15.5 °F 14.0 °F 54% 30.01 in 10.0 mi West 20.7 mph 27.6 mph N/A   Clear
5:15 AM 28.6 °F 14.3 °F 13.8 °F 54% 30.02 in 10.0 mi West 24.2 mph 31.1 mph N/A   Clear
5:35 AM 28.4 °F 13.8 °F 14.0 °F 55% 30.01 in 10.0 mi West 25.3 mph 32.2 mph N/A   Clear
5:55 AM 28.0 °F 13.3 °F 14.4 °F 57% 30.01 in 10.0 mi West 25.3 mph 33.4 mph N/A   Clear
6:15 AM 27.5 °F 12.6 °F 15.3 °F 60% 30.01 in 10.0 mi West 25.3 mph 32.2 mph N/A   Clear
6:35 AM 27.3 °F 12.7 °F 15.6 °F 61% 30.02 in 10.0 mi West 24.2 mph 32.2 mph N/A   Clear
6:55 AM 27.1 °F 13.1 °F 15.4 °F 61% 30.02 in 10.0 mi West 21.9 mph 31.1 mph N/A   Clear
7:15 AM 26.6 °F 11.7 °F 15.4 °F 63% 30.02 in 10.0 mi West 24.2 mph 29.9 mph N/A   Clear
7:55 AM 27.3 °F 11.8 °F 15.4 °F 61% 30.03 in 10.0 mi West 27.6 mph 34.5 mph N/A   Clear
8:15 AM 27.9 °F 12.8 °F 15.1 °F 59% 30.03 in 10.0 mi West 26.5 mph 34.5 mph N/A   Clear
8:35 AM 28.4 °F 13.3 °F 14.0 °F 55% 30.04 in 10.0 mi West 27.6 mph 35.7 mph N/A   Clear
8:55 AM 28.9 °F 13.5 °F 13.8 °F 53% 30.04 in 10.0 mi West 29.9 mph 36.8 mph N/A   Clear
9:15 AM 29.7 °F 14.7 °F 14.0 °F 52% 30.04 in 10.0 mi West 28.8 mph 36.8 mph N/A   Clear
9:35 AM 30.9 °F 15.9 °F 11.3 °F 44% 30.03 in 10.0 mi West 31.1 mph 35.7 mph N/A   Clear
9:55 AM 32.0 °F 18.4 °F 9.5 °F 39% 30.03 in 10.0 mi West 26.5 mph 40.3 mph N/A   Clear
10:15 AM 32.2 °F 18.4 °F 8.6 °F 37% 30.03 in 10.0 mi West 27.6 mph 36.8 mph N/A   Clear
10:35 AM 33.1 °F 19.6 °F 9.0 °F 37% 30.02 in 10.0 mi West 27.6 mph 39.1 mph N/A   Clear
10:55 AM 33.6 °F 19.4 °F 8.1 °F 34% 30.02 in 10.0 mi West 32.2 mph 36.8 mph N/A   Clear
11:15 AM 34.7 °F 21.8 °F 7.3 °F 32% 30.02 in 10.0 mi West 27.6 mph 34.5 mph N/A   Clear
11:35 AM 35.6 °F 23.0 °F 7.0 °F 30% 30.02 in 10.0 mi West 27.6 mph 40.3 mph N/A   Clear
11:55 AM 36.1 °F 24.4 °F 6.6 °F 29% 30.03 in 10.0 mi West 24.2 mph 34.5 mph N/A   Clear
12:15 PM 36.5 °F 24.9 °F 4.5 °F 26% 30.03 in 10.0 mi West 24.2 mph 40.3 mph N/A   Clear
12:35 PM 37.4 °F 25.4 °F 4.8 °F 26% 30.02 in 10.0 mi West 27.6 mph 35.7 mph N/A   Clear
12:55 PM 37.4 °F 25.9 °F 3.6 °F 24% 30.03 in 10.0 mi West 25.3 mph 35.7 mph N/A   Clear
1:15 PM 38.3 °F 26.8 °F 3.7 °F 24% 30.02 in 10.0 mi West 26.5 mph 39.1 mph N/A   Clear
1:35 PM 38.5 °F 26.2 °F 4.1 °F 24% 30.02 in 10.0 mi West 31.1 mph 38.0 mph N/A   Clear
1:55 PM 38.7 °F 27.8 °F 5.2 °F 25% 30.01 in 10.0 mi West 24.2 mph 34.5 mph N/A   Clear
2:15 PM 39.4 °F 28.3 °F 5.5 °F 25% 30.01 in 10.0 mi West 26.5 mph 38.0 mph N/A   Clear
2:35 PM 39.9 °F 29.0 °F 5.5 °F 24% 30.01 in 10.0 mi West 26.5 mph 33.4 mph N/A   Clear
2:55 PM 40.5 °F 30.4 °F 7.0 °F 25% 30.02 in 10.0 mi West 23.0 mph 32.2 mph N/A   Clear
3:15 PM 40.1 °F 30.5 °F 6.8 °F 25% 30.02 in 10.0 mi West 20.7 mph 34.5 mph N/A   Clear
3:35 PM 40.1 °F 30.2 °F 6.6 °F 25% 30.02 in 10.0 mi West 21.9 mph 33.4 mph N/A   Clear
3:55 PM 39.7 °F 29.7 °F 6.8 °F 26% 30.02 in 10.0 mi West 21.9 mph 29.9 mph N/A   Clear
4:15 PM 40.1 °F 31.3 °F 3.7 °F 22% 30.02 in 10.0 mi West 17.3 mph 26.5 mph N/A   Clear
4:35 PM 39.6 °F 30.3 °F 1.2 °F 20% 30.03 in 10.0 mi WNW 18.4 mph 32.2 mph N/A   Clear
4:55 PM 39.0 °F 29.6 °F 2.8 °F 22% 30.03 in 10.0 mi WNW 18.4 mph 31.1 mph N/A   Clear
5:15 PM 38.3 °F 30.1 °F 4.8 °F 25% 30.05 in 10.0 mi WNW 13.8 mph 24.2 mph N/A   Clear
5:35 PM 36.5 °F 27.4 °F 6.3 °F 28% 30.06 in 10.0 mi WNW 15.0 mph 25.3 mph N/A   Clear
5:55 PM 35.4 °F 26.4 °F 6.6 °F 30% 30.07 in 10.0 mi WNW 13.8 mph 24.2 mph N/A   Clear
6:15 PM 34.5 °F 26.7 °F 7.3 °F 32% 30.09 in 10.0 mi West 10.4 mph 24.2 mph N/A   Clear
6:35 PM 33.4 °F 25.4 °F 8.4 °F 35% 30.09 in 10.0 mi West 10.4 mph 18.4 mph N/A   Clear
6:55 PM 32.9 °F 22.8 °F 9.3 °F 37% 30.10 in 10.0 mi NW 15.0 mph - N/A   Clear
7:15 PM 32.7 °F 21.4 °F 9.7 °F 38% 30.10 in 10.0 mi NW 18.4 mph 26.5 mph N/A   Clear
7:35 PM 32.2 °F 21.8 °F 10.0 °F 40% 30.11 in 10.0 mi NW 15.0 mph 26.5 mph N/A   Clear
7:55 PM 32.0 °F 22.5 °F 10.2 °F 40% 30.13 in 10.0 mi WNW 12.7 mph 20.7 mph N/A   Clear
8:15 PM 31.3 °F 19.5 °F 10.0 °F 41% 30.12 in 10.0 mi WNW 18.4 mph 23.0 mph N/A   Clear
8:35 PM 31.1 °F 18.6 °F 10.2 °F 42% 30.12 in 10.0 mi NW 20.7 mph - N/A   Clear
8:55 PM 30.6 °F 18.2 °F 10.6 °F 43% 30.12 in 10.0 mi NW 19.6 mph 25.3 mph N/A   Clear
9:15 PM 30.4 °F 19.1 °F 10.9 °F 44% 30.12 in 10.0 mi NW 16.1 mph 24.2 mph N/A   Clear
9:35 PM 30.0 °F 18.7 °F 11.3 °F 46% 30.13 in 10.0 mi NW 16.1 mph 26.5 mph N/A   Clear
9:55 PM 29.5 °F 19.3 °F 11.3 °F 47% 30.14 in 10.0 mi WNW 12.7 mph 23.0 mph N/A   Clear
10:15 PM 28.8 °F 19.0 °F 12.0 °F 50% 30.13 in 10.0 mi West 11.5 mph - N/A   Clear
10:35 PM 28.8 °F 18.4 °F 12.2 °F 50% 30.14 in 10.0 mi West 12.7 mph - N/A   Clear
10:55 PM 28.8 °F 17.9 °F 12.2 °F 50% 30.13 in 10.0 mi West 13.8 mph 18.4 mph N/A   Clear
11:15 PM 28.8 °F 18.4 °F 12.2 °F 50% 30.13 in 10.0 mi WNW 12.7 mph - N/A   Clear
11:35 PM 27.7 °F 18.2 °F 12.9 °F 54% 30.12 in 10.0 mi West 10.4 mph - N/A   Clear
11:55 PM 27.3 °F 18.4 °F 13.1 °F 55% 30.12 in 10.0 mi West 9.2 mph - N/A   Clear